			
			
				
				
					
						 
					 | 
				
				
				
					
						
					 | 
				
				
				
					
					
					Asteroid 2011 SU232
					
					
					
					
						
					
					
						
							(Preview)
						
						
						
						
							
						
							
								Orbital elements:
2011 SU232                                               Earth MOID = 0.4112 AU
Epoch 2011 Aug. 27.0 TT = JDT 2455800.5                 MPC
M   6.35489              (2000.0)            P               Q
n   0.25274294     Peri.  112.50454     +0.82450498     +0.53203590
a   2.4775173      Node   216.18589     -0.55925579     +0.81804115
e   0.4807508      Incl.   19.04845     +0.08616551     +0.21850966
P   3.90           H   20.1... 
							 
							
						 
						
					
				 | 
				
					
						Blobrana
					 | 
				
				
					
						0
					 | 
				
				
				
					
						
					 | 
				
				
					
						
					 | 
				
			
		
			
			
				
				
					
						 
					 | 
				
				
				
					
						
					 | 
				
				
				
					
					
					Asteroid 2011 TH
					
					
					
					
						
					
					
						
							(Preview)
						
						
						
						
							
						
							
								Orbital elements:
2011 TH                                                  Earth MOID = 0.0569 AU
Epoch 2011 Aug. 27.0 TT = JDT 2455800.5                 MPC
M   9.14804              (2000.0)            P               Q
n   0.43868006     Peri.  101.55212     +0.52770459     +0.84887612
a   1.7154213      Node   200.38748     -0.80956891     +0.49170491
e   0.4476130      Incl.    5.04153     -0.25714984     +0.19399903
P   2.25           H   23.4           G   0.1... 
							 
							
						 
						
					
				 | 
				
					
						Blobrana
					 | 
				
				
					
						0
					 | 
				
				
				
					
						
					 | 
				
				
					
						
					 | 
				
			
		
			
			
				
				
					
						 
					 | 
				
				
				
					
						
					 | 
				
				
				
					
					
					Asteroid 2011 TJ
					
					
					
					
						
					
					
						
							(Preview)
						
						
						
						
							
						
							
								Orbital elements:
2011 TJ                                                  Earth MOID = 0.0529 AU
Epoch 2011 Aug. 27.0 TT = JDT 2455800.5                 MPC
M  10.69879              (2000.0)            P               Q
n   0.36260023     Peri.  218.85962     +0.14676485     +0.98627934
a   1.9476788      Node    59.70035     -0.88429838     +0.16506232
e   0.6380398      Incl.    5.02233     -0.44325665     -0.00273701
P   2.72           H   21.1           G   0.1... 
							 
							
						 
						
					
				 | 
				
					
						Blobrana
					 | 
				
				
					
						0
					 | 
				
				
				
					
						
					 | 
				
				
					
						
					 | 
				
			
		
			
			
				
				
					
						 
					 | 
				
				
				
					
						
					 | 
				
				
				
					
					
					Asteroid 2011 TK
					
					
					
					
						
					
					
						
							(Preview)
						
						
						
						
							
						
							
								Orbital elements:
2011 TK                                             PHA, Earth MOID = 0.0286 AU
Epoch 2011 Aug. 27.0 TT = JDT 2455800.5                 MPC
M 333.81924              (2000.0)            P               Q
n   0.25636703     Peri.  121.50458     -0.01014251     -0.99746553
a   2.4541133      Node   328.84132     +0.86507482     +0.02657177
e   0.6441975      Incl.    7.82282     +0.50154031     -0.06600342
P   3.84           H   21...                                   
							 
							
						 
						
					
				 | 
				
					
						Blobrana
					 | 
				
				
					
						0
					 | 
				
				
				
					
						
					 | 
				
				
					
						
					 |